User: anonymous   Login
Location: Cabeza de los Veneras
(40.2000°N, 5.2000°W)
Time: 16:09:31
(UTC+00:00)
Language:

Terra - Orbit

View from above orbital plane
View from above orbital plane
View from above satellite
View from above satellite

Ground track
Ground track

The orbit is defined by the following mean orbital elements,

1 25994U          26017.96414367 +.00000000 +00000-0 +92955-4 0 00002
2 25994  97.9695  73.3100 0002157  16.0920  36.8161 14.60947242    07
Epoch (UTC): 17 January 2026 23:08:22
Eccentricity: 0.0002157
inclination: 97.9695°
perigee height: 689 km
apogee height: 692 km
right ascension of ascending node: 73.3100°
argument of perigee: 16.0920°
revolutions per day: 14.60947242
mean anomaly at epoch: 36.8161°

The dashed part of the orbit path shows where the satellite is in the earth's shadow,  

DLR